Dewpoint
40 40 40 40 40 40 38 29 20 33 31 20 11 14 23 26 25 25 27 25 27 24 24 26 28 28 32 35 33 32 34 26 26 27 27 28 26 24 25 21 20 22 21 17
40 40 39 39 40 40 34 22 25 30 30 14 19 21 22 24 22 22 24 23 24 25 22 23 26 25 29 28 33 36 37 32 25 25 26 27 26 25 25 24 23 20 19 19
40 40 39 39 39 39 30 21 15 23 24 26 21 21 19 20 23 24 23 24 23 22 22 23 19 22 29 25 36 39 38 34 29 23 25 29 26 25 25 24 22 21 20 20
40 40 39 39 39 39 31 23 24 24 14 18 21 19 13 18 18 23 23 22 21 24 20 19 19 20 22 24 33 35 37 30 32 30 30 29 28 27 26 24 23 22 22 21
40 40 39 39 39 37 30 20 18 21 8 17 9 14 9 19 21 22 17 20 23 24 21 20 20 23 22 24 27 29 33 32 33 28 28 26 26 27 27 27 26 24 24 23
40 40 39 39 39 35 27 28 29 28 17 4 9 13 21 19 23 22 24 24 25 21 24 30 30 30 30 29 27 27 28 31 32 28 28 26 23 25 27 27 27 26 25 27
40 40 40 39 38 36 30 29 28 24 10 16 16 21 22 22 23 22 23 24 25 24 27 30 31 28 27 27 25 28 25 28 30 27 31 24 26 28 26 27 28 28 28 28
40 39 39 39 38 38 31 30 28 30 20 22 18 20 15 21 21 19 23 24 22 25 29 24 15 24 25 25 26 26 28 28 27 25 24 29 27 27 25 25 25 27 27 25
40 39 39 40 38 38 32 31 35 31 21 12 20 23 16 21 14 12 19 19 24 28 28 22 8 11 18 24 29 28 28 29 26 27 23 20 24 25 26 26 22 26 26 27
41 39 38 39 38 38 32 32 37 30 25 23 23 16 23 27 15 11 12 15 20 24 13 7 14 19 26 22 26 25 25 25 21 21 23 16 20 21 24 23 21 24 26 27
41 39 37 39 39 37 33 32 35 32 27 24 26 29 24 26 15 10 13 10 14 15 14 11 11 17 22 24 21 19 15 9 24 24 25 24 18 17 16 17 18 19 23 24
41 39 37 39 39 38 34 30 32 34 30 24 28 31 32 34 25 17 11 6 13 24 16 11 11 14 22 21 18 16 8 7 7 10 13 15 16 19 20 20 18 18 19 24
41 40 36 38 38 38 35 29 29 27 20 20 23 29 34 21 24 30 6 9 17 18 27 24 17 12 20 12 8 9 6 8 6 4 13 9 9 19 16 17 17 17 18 25
41 40 35 38 38 37 33 29 30 28 22 9 15 24 27 13 10 13 24 18 22 24 27 24 19 15 20 9 7 1 2 3 1 4 10 5 18 9 12 14 15 18 23 23
41 39 35 37 37 35 32 32 31 30 23 11 16 22 25 9 6 7 18 19 24 21 24 21 14 15 14 8 3 -4 5 2 -1 -2 2 4 5 8 10 13 17 20 23 23
41 37 36 36 37 36 32 21 32 31 30 21 11 18 8 8 8 7 12 21 23 28 20 16 13 12 10 0 -2 0 5 7 8 4 7 7 8 9 11 14 16 21 25 24
41 34 35 33 36 27 22 23 27 30 31 11 -0 2 9 12 10 11 13 18 20 21 16 12 3 2 -0 -12 -10 -2 3 5 5 6 7 3 4 6 11 15 17 23 23 23
40 31 34 36 33 29 23 27 24 21 15 10 -7 -1 1 10 6 5 13 14 14 19 12 12 7 4 -3 -10 -5 -3 -1 2 3 3 6 6 7 8 9 13 16 18 19 20
37 31 32 24 22 19 22 30 22 19 15 -1 1 -3 -4 7 7 9 10 12 7 20 7 8 3 1 -6 -1 -0 -0 1 1 2 3 3 3 4 5 7 10 13 15 16 17
26 22 20 12 19 27 19 14 9 8 5 6 5 7 -2 3 4 3 7 8 7 2 13 8 -1 0 2 -2 -3 -1 2 3 3 -0 -1 2 2 4 6 8 12 15 16 17
25 17 15 23 21 17 10 -0 0 -0 -4 9 7 3 0 6 -2 1 8 2 7 -6 6 1 -2 -2 -7 -9 -10 -6 -4 0 1 2 5 5 6 5 6 8 11 13 15 16
26 25 21 19 12 8 -4 -6 1 0 -3 7 2 0 3 2 8 5 4 1 2 -6 0 -11 -9 -8 -7 -11 -10 -6 -7 -5 1 3 3 5 6 7 8 9 11 12 14 16
19 12 4 9 8 0 -3 1 3 2 6 5 1 -5 -2 -1 -1 -8 1 -7 -4 3 -12 -8 -7 -7 -7 -13 -14 -6 -6 -7 -5 -1 3 5 7 9 9 9 12 13 13 14
15 5 -5 8 7 6 9 10 12 8 7 5 2 -3 -4 -6 -7 -9 -8 -4 -5 -16 -18 -11 -10 -9 -10 -13 -12 -12 -7 -6 -5 -1 5 5 6 8 10 11 12 12 12 14
16 9 1 2 10 10 10 9 10 8 6 3 -0 -5 -4 -9 -10 -9 -6 -12 -14 -11 -7 -5 -6 -7 -11 -12 -10 -10 -10 -11 -9 -5 2 6 7 8 9 10 11 12 12 13
13 8 4 9 10 11 9 10 10 7 4 3 2 -10 -11 -11 -10 -9 -10 -14 -11 -5 -5 -3 -7 -6 -10 -9 -7 -5 -7 -10 -8 -4 2 7 8 8 9 10 10 11 11 11
11 6 11 14 12 15 13 13 11 8 8 5 1 -8 -9 -11 -15 -13 -8 -8 -3 -3 -4 -2 -1 -4 -7 -7 -2 2 0 -4 -6 -4 1 6 10 10 9 7 9 10 11 11
Lifted_Index
16 16 16 16 15 15 15 14 13 13 12 9 6 4 4 3 3 4 5 5 5 5 4 3 2 3 4 3 1 1 1 1 2 2 2 2 2 3 4 4 4 4 4 4
16 16 16 16 16 15 15 14 13 14 13 10 7 5 4 3 3 4 5 5 5 5 4 3 3 3 4 3 2 1 1 1 1 2 2 2 2 3 3 4 4 4 4 4
16 16 16 16 16 16 16 15 14 14 13 11 9 7 5 4 3 4 5 5 5 5 5 4 3 3 4 4 2 1 1 1 1 2 2 3 3 3 3 3 4 4 5 5
16 16 16 16 16 16 16 15 14 14 13 12 11 9 7 5 4 4 4 5 5 5 5 4 4 3 3 3 3 2 1 1 1 1 2 3 3 3 3 3 3 4 4 5
16 16 16 16 16 17 16 15 14 14 13 12 12 10 9 7 5 5 4 4 5 5 5 5 5 5 4 3 3 2 1 1 0 1 1 2 2 2 2 2 3 3 4 4
16 16 16 16 16 17 16 16 15 14 13 12 12 11 10 9 7 6 6 5 4 5 5 6 6 6 6 5 3 2 1 1 0 0 1 1 1 2 2 3 3 3 3 3
16 16 15 16 16 17 17 16 15 13 12 12 12 12 11 10 9 8 7 6 5 5 6 6 6 6 6 5 4 3 2 1 1 0 0 0 1 2 2 2 2 2 2 2
16 16 15 15 15 16 16 16 15 14 12 12 12 12 12 11 10 9 8 7 7 6 5 5 5 5 5 5 4 3 3 2 1 1 1 1 1 1 1 2 2 2 2 2
16 16 15 15 15 16 16 16 16 14 13 12 13 13 12 12 11 10 9 8 7 6 4 4 3 3 3 3 3 3 2 2 1 1 1 1 1 1 1 1 2 2 2 2
16 16 15 15 15 15 16 16 16 15 14 13 13 13 12 12 11 11 10 9 7 6 4 3 2 2 2 2 2 2 2 1 1 0 0 1 1 1 1 1 2 3 3 3
16 16 15 14 14 15 15 16 16 16 14 14 13 13 12 12 12 12 12 11 9 7 5 3 3 2 3 3 2 2 2 1 1 0 1 2 3 3 3 4 4 4 4 3
15 15 15 14 14 14 15 15 16 16 15 13 13 13 12 13 13 14 14 13 11 9 7 5 4 4 4 4 3 3 3 3 2 2 2 4 6 7 8 8 7 5 5 4
15 15 15 14 14 14 15 15 15 16 14 13 12 13 13 13 14 15 15 15 13 11 10 8 6 5 5 5 5 5 6 6 4 3 4 6 8 9 11 10 9 8 7 5
15 15 15 15 14 14 15 15 15 15 13 11 11 12 13 13 15 16 16 15 14 12 11 9 8 7 7 6 6 6 7 7 5 5 6 7 8 10 10 10 10 9 8 7
15 15 15 15 14 14 15 14 15 15 13 11 10 12 13 14 16 16 15 14 13 12 11 10 9 9 8 8 7 8 9 9 8 7 9 9 10 11 12 11 10 10 9 8
14 15 15 15 14 15 14 14 15 16 14 11 9 11 13 15 16 15 14 13 12 12 11 11 11 11 10 9 8 9 11 12 12 11 12 12 12 13 14 13 12 12 11 11
14 14 15 15 15 15 15 14 15 16 15 12 9 10 12 14 14 14 13 12 12 12 12 12 12 12 11 10 10 11 13 14 15 15 15 14 14 14 15 15 14 14 13 12
13 14 15 16 16 16 15 16 16 17 15 12 9 8 10 13 13 13 13 12 12 12 12 12 12 12 11 11 11 13 13 14 14 15 16 15 15 15 15 16 15 14 13 12
12 12 13 14 16 16 16 16 16 16 14 11 9 8 9 11 12 12 13 12 11 11 12 12 12 12 12 12 13 14 15 14 14 14 14 15 15 15 15 15 15 14 13 13
11 11 10 12 15 17 16 14 13 12 12 11 10 9 9 11 11 11 11 12 10 9 10 11 11 12 13 14 15 16 16 16 15 13 13 13 14 14 15 15 15 15 14 14
10 9 10 12 15 15 13 10 9 8 8 9 10 10 10 11 11 10 11 10 9 8 9 10 10 11 13 15 16 17 17 17 16 15 14 14 14 14 14 15 16 16 16 16
10 10 10 12 12 10 8 6 6 5 6 8 9 9 11 12 12 11 10 10 9 9 9 9 9 11 14 15 16 17 17 17 17 16 15 14 14 14 15 16 17 17 17 17
10 9 9 9 8 6 5 4 4 4 5 7 8 9 10 12 12 11 10 9 9 9 9 8 10 12 14 16 17 17 17 17 17 16 15 14 14 14 14 16 17 17 18 18
9 8 7 6 5 5 4 4 4 5 6 8 9 9 10 10 10 10 9 8 8 8 7 8 11 13 15 16 17 17 17 17 16 15 14 13 13 13 14 15 16 17 17 17
8 7 6 5 5 5 5 5 5 6 7 9 9 9 9 9 9 8 8 7 7 7 8 10 12 14 15 16 17 17 17 17 16 15 14 13 12 12 13 14 16 16 16 17
8 7 5 5 5 5 5 5 6 7 8 9 9 8 8 8 8 7 7 6 6 8 9 12 14 15 16 17 17 17 17 17 16 15 14 13 12 12 13 14 14 15 15 15
7 6 5 5 5 5 5 5 6 7 7 7 8 7 7 7 7 7 7 7 7 9 11 13 14 15 16 17 17 17 17 17 16 15 14 13 12 12 13 13 13 14 15 14